Tracking 29892 objects as of 21-Nov-2024
HD Live streaming from Space Station
objects crossing your sky now

KEPLER-20

Track KEPLER-20 now!
10-day predictions


NORAD ID: 56217
Int'l Code: 2023-054AR
Perigee: 451.2 km
Apogee: 461.4 km
Inclination: 97.3 °
Period: 93.6 minutes
Semi major axis: 6827 km
RCS: Unknown
Launch date: April 15, 2023
Source: Canada (CA)
Launch site: AIR FORCE WESTERN TEST RANGE (AFWTR)
Your satellite tracking list
Your tracking list is empty




NASA's NSSDC Master Catalog

Two Line Element Set (TLE):
1 56217U 23054AR  24326.17347747  .00026559  00000-0  68841-3 0  9999
2 56217  97.3493 221.5552 0007462 334.0165  26.0705 15.38973354 90075
Source of the keplerian elements: AFSPC